This demonstration page uses our WeatherBlox Daily Observations layout. Learn more.

Left ArrowRight Arrow

Hourly Observations for February 22, 2018

Temp ( °F °C ) Dew Point ( °F °C ) Humidity (%) Winds ( mph kmh ) Pressure ( in mb ) Visibility ( mi km ) Precip ( " mm )
12:13 am 00:13 Cloudy 22 -5.6 10 -12.2 60 60 E 10 17 30.59 1036 10 16 0.00 0.00
12:27 am 00:27 Cloudy 21 -6.1 11 -11.7 65 65 E 8 13 30.56 1035 10 16 0.00 0.00
12:53 am 00:53 Cloudy with Light Snow 20 -6.7 13 -10.6 74 74 ENE 8 13 30.51 1033 5 8 0.00 0.03
1:53 am 01:53 Cloudy 20 -6.7 14 -10 78 78 ENE 12 19 30.48 1032 10 16 0.00 0.03
2:53 am 02:53 Cloudy with Mist and Fog 20 -6.7 16 -8.9 85 85 ENE 9 15 30.47 1032 4 6 0.00 0.03
3:20 am 03:20 Cloudy 19 -7 16 -9 86 86 ENE 10 17 30.53 1034 10 16 0.00 0.00
3:53 am 03:53 Cloudy 20 -6.7 16 -8.9 85 85 ENE 7 11 30.46 1031 10 16 0.00 0.00
4:13 am 04:13 Cloudy 20 -6.7 16 -8.9 85 85 ENE 9 15 30.50 1033 8 13 0.00 0.00
4:53 am 04:53 Cloudy 20 -6.7 16 -8.9 85 85 ENE 9 15 30.44 1031 9 14 0.00 0.00
5:53 am 05:53 Cloudy 20 -6.7 17 -8.3 89 89 E 9 15 30.43 1030 7 11 0.00 0.00
6:53 am 06:53 Cloudy 20 -6.7 16 -8.9 85 85 E 9 15 30.40 1029 9 14 0.00 0.00
7:53 am 07:53 Cloudy with Mist and Fog 20 -6.7 17 -8.3 89 89 E 9 15 30.40 1030 5 8 0.00 0.00
8:53 am 08:53 Cloudy with Mist and Fog 20 -6.7 17 -8.3 89 89 SE 9 15 30.42 1030 6 10 0.00 0.00
9:53 am 09:53 Cloudy 21 -6.1 18 -7.8 88 88 SE 8 13 30.42 1030 7 11 0.00 0.00
10:53 am 10:53 Cloudy 23 -5 19 -7.2 85 85 ESE 9 15 30.38 1029 7 11 0.00 0.00
11:53 am 11:53 Cloudy 24 -4.4 19 -7.2 81 81 SSE 6 9 30.34 1027 8 13 0.00 0.00
12:03 pm 12:03 Cloudy 24 -4.4 19 -7.2 81 81 ESE 6 9 30.36 1028 8 13 0.00 0.00
12:42 pm 12:42 Cloudy 25 -4 19 -7 80 80 ESE 7 11 30.36 1028 9 14 0.00 0.00
1:53 pm 13:53 Cloudy 25 -3.9 20 -6.7 81 81 SE 10 17 30.29 1026 10 16 0.00 0.00
2:53 pm 14:53 Cloudy 25 -3.9 21 -6.1 85 85 SE 8 13 30.23 1024 10 16 0.00 0.00
3:53 pm 15:53 Cloudy with Light Snow 25 -3.9 22 -5.6 88 88 SSE 5 7 30.22 1023 8 13 0.00 0.03
4:14 pm 16:14 Cloudy with Light Snow 25 -4 21 -6 86 86 S 5 7 30.27 1025 2 3 0.00 0.00
4:33 pm 16:33 Cloudy with Light Snow 25 -3.9 23 -5 92 92 Calm 30.27 1025 1 1 0.01 0.25
4:38 pm 16:38 Cloudy with Light Snow 25 -4 23 -5 93 93 S 3 6 30.27 1025 1 2 0.00 0.00
4:48 pm 16:48 Cloudy with Light Freezing Rain 25 -4 23 -5 93 93 S 3 6 30.27 1025 2 3 0.00 0.00
4:53 pm 16:53 Cloudy with Light Freezing Rain 25 -3.9 23 -5 92 92 SSW 3 6 30.22 1024 2 3 0.02 0.51
5:03 pm 17:03 Cloudy with Light Snow 25 -3.9 23 -5 92 92 Calm 30.27 1025 2 3 0.00 0.03
5:26 pm 17:26 Cloudy with Light Snow 25 -3.9 23 -5 92 92 Calm 30.21 1023 3 4 0.01 0.25
5:30 pm 17:30 Cloudy with Light Snow 26 -3.3 23 -5 88 88 Calm 30.21 1023 3 5 0.01 0.25
5:38 pm 17:38 Cloudy with Light Snow 25 -4 23 -5 93 93 Calm 30.21 1023 4 6 0.00 0.00
5:48 pm 17:48 Cloudy with Mist and Fog 27 -3 23 -5 86 86 Calm 30.21 1023 5 8 0.01 0.25
5:53 pm 17:53 Cloudy with Mist and Fog 26 -3.3 23 -5 88 88 Calm 30.21 1023 5 8 0.01 0.25
6:53 pm 18:53 Cloudy with Mist and Fog 25 -3.9 24 -4.4 96 96 W 3 6 30.22 1024 3 5 0.00 0.00
7:12 pm 19:12 Cloudy with Mist and Fog 27 -3 25 -4 93 93 Calm 30.24 1024 3 4 0.00 0.00
7:53 pm 19:53 Cloudy with Mist and Fog 26 -3.3 24 -4.4 92 92 WSW 5 7 30.24 1024 3 4 0.00 0.00
8:07 pm 20:07 Cloudy with Mist and Fog 25 -3.9 24 -4.4 96 96 W 6 9 30.27 1025 4 6 0.00 0.00
8:22 pm 20:22 Cloudy with Mist and Fog 27 -3 25 -4 93 93 W 5 7 30.24 1024 5 8 0.00 0.00
8:40 pm 20:40 Cloudy with Mist and Fog 27 -3 25 -4 93 93 WSW 5 7 30.24 1024 6 10 0.00 0.00
8:53 pm 20:53 Cloudy with Mist and Fog 26 -3.3 24 -4.4 92 92 Calm 30.23 1024 6 10 0.00 0.00
9:21 pm 21:21 Cloudy 26 -3.3 24 -4.4 92 92 W 5 7 30.24 1024 8 13 0.00 0.00
9:30 pm 21:30 Cloudy 27 -3 25 -4 93 93 W 6 9 30.24 1024 9 14 0.00 0.00
9:53 pm 21:53 Cloudy 25 -3.9 23 -5 92 92 W 5 7 30.22 1024 10 16 0.00 0.00
10:12 pm 22:12 Cloudy 26 -3.3 24 -4.4 92 92 W 6 9 30.24 1024 10 16 0.00 0.00
10:27 pm 22:27 Cloudy 26 -3.3 24 -4.4 92 92 W 7 11 30.24 1024 9 14 0.00 0.00
10:53 pm 22:53 Cloudy 26 -3.3 24 -4.4 92 92 WNW 8 13 30.23 1024 9 14 0.00 0.00
11:08 pm 23:08 Cloudy 27 -3 23 -5 86 86 WNW 8 13 30.24 1024 10 16 0.00 0.00
11:28 pm 23:28 Cloudy 25 -4 23 -5 93 93 W 6 9 30.27 1025 10 16 0.00 0.00
11:39 pm 23:39 Cloudy 24 -4.4 22 -5.6 91 91 WNW 7 11 30.27 1025 10 16 0.00 0.00
11:46 pm 23:46 Cloudy 25 -4 21 -6 86 86 WNW 8 13 30.27 1025 10 16 0.00 0.00
11:53 pm 23:53 Cloudy 25 -3.9 23 -5 92 92 W 8 13 30.23 1024 10 16 0.00 0.00

Powered by AerisWeather